TIANQI-15 (49027 NORAD) Tracking and Keplerian Element Data

This shows tracking and keplerian element data for the satellite.

Feedback or suggestion? Click here.




ElementValue
Catalog49027
NameTIANQI-15
Epoch Orbit165
Epoch Day211.03905475
Epoch Year2021
RAAN211.2888
Inclination35.0017
Eccentricity0.0008803
Argument of Perigee18.779
Mean Anonmoly341.3245
Mean Motion14.91400987
Decay Rate1.24E-06
L11 49027U 21065B 21211.03905475 .00000124 00000-0 14910-4 0 9992
L22 49027 35.0017 211.2888 0008803 18.7790 341.3245 14.91400987 1658

Live tracking and technical data element details for TIANQI-15 (NORAD 49027). TIANQI-15 can be tracked NOW for your location showing map with azimuth and elevation plus other details from your city location.

Track the satellite on the map from your city or location and see movement details for azimuth, elevation, latitude, longitude, range, height, and movement on the map or in text.







IsCatalogInMostPopularTable: catalog: 49027, numindb: 2
Update: records affected: 1



GetName: 49027 TIANQI-15

Hit Count: updated at: Sat, 31 Jul 2021 15:23:43 GMT